Miscellaneous Local Product
Issued by NWS Hastings, NE

Home | Current Version | Previous Version | Text Only | Print | Product List | Glossary Off
Versions: 1 2 3 4 5 6 7 8 9 10 11 12 13 14 15 16 17 18 19 20 21 22 23 24 25 26 27 28 29 30 31 32 33 34 35 36 37 38 39 40 41 42 43 44 45 46 47 48 49 50

331
AXUS43 KGID 241102
MISGRI

GID CWA HOURLY WEATHER ROUNDUP
NATIONAL WEATHER SERVICE HASTINGS NE
600 AM CDT WED AUG 24 2016

NOTE: "FAIR" INDICATES FEW OR NO CLOUDS BELOW 12,000 FEET WITH NO
SIGNIFICANT WEATHER AND/OR OBSTRUCTIONS TO VISIBILITY.

...SOUTH CENTRAL NEBRASKA...

CITY           SKY/WX    TMP DP  RH WIND       PRES   REMARKS
GRAND ISLAND   CLOUDY    61  58  90 N6        29.99R
HASTINGS       CLOUDY    64  63  96 N9        29.99R
KEARNEY        CLOUDY    63  52  67 N9        30.00R
ORD            PTCLDY    54  48  80 NW6       30.00R
YORK           CLOUDY    64  64 100 NW7       29.96R
AURORA         CLOUDY    64  64 100 N5        29.98R
LEXINGTON      CLOUDY    55  51  87 W6        30.04R
HOLDREGE       CLOUDY    61  51  70 N7        30.00S
HEBRON         PTCLDY    67  64  92 NE3       29.92R

...NEBRASKA PANHANDLE...

CITY           SKY/WX    TMP DP  RH WIND       PRES   REMARKS
CHADRON        CLOUDY    47  37  68 W7        30.13R
ALLIANCE       PTCLDY    50  43  77 N7        30.13R
SCOTTSBLUFF    CLOUDY    57  42  57 NE6       30.14R
SIDNEY         CLOUDY    58  44  60 S6        30.16S

...WESTERN AND NORTH CENTRAL NEBRASKA...

CITY           SKY/WX    TMP DP  RH WIND       PRES   REMARKS
VALENTINE      CLOUDY    48  40  73 SW6       30.09R
AINSWORTH      PTCLDY    50  45  83 W6        30.08R
ONEILL         CLOUDY    56  47  72 NW7       30.02R
BROKEN BOW     PTCLDY    56  47  71 N10       30.04R
IMPERIAL       MOCLDY    62  44  51 NE6       30.08S
NORTH PLATTE   CLOUDY    59  45  59 W6        30.07R
MCCOOK         CLOUDY    62  47  57 N8        30.04R

...EASTERN NEBRASKA...

CITY           SKY/WX    TMP DP  RH WIND       PRES   REMARKS
NORFOLK        CLOUDY    60  55  83 W7        29.96R
SO SIOUX CITY  PTCLDY    68  65  90 W9        29.89R
TEKAMAH        CLEAR     68  65  90 W9        29.90S
COLUMBUS       CLOUDY    64  57  77 NW7       29.97R
ALBION         MOCLDY    57  54  88 CALM      29.99S
OMAHA EPPLEY   MOCLDY    68  64  87 NW6       29.89S
OFFUTT AFB     PTCLDY    65  65 100 W3        29.90S
MILLARD        CLOUDY    68  65  89 CALM      29.91R
LINCOLN        PTCLDY    66  64  93 N6        29.93R
NEBRASKA CITY  PTCLDY    64  64 100 CALM      29.90F
BEATRICE       MOCLDY    65  63  90 CALM      29.91R
FALLS CITY     PTCLDY    67  65  93 S7        29.89S

...NORTHERN KANSAS...

CITY           SKY/WX    TMP DP  RH WIND       PRES   REMARKS
GOODLAND       CLOUDY    65  46  50 NE16      30.02F
HILL CITY      CLOUDY    67  55  65 N8        29.98R
NORTON         SUNNY     63  46  55 NW6       30.00S
SMITH CENTER   CLEAR     66  59  77 N12       29.93R
BELOIT         CLEAR     66  64  94 CALM      29.87S
HAYS           CLOUDY    68  54  60 NW5       29.94R
RUSSELL        PTCLDY    68  64  87 SW7       29.91S
CONCORDIA      CLOUDY    70  67  90 NE8       29.90R
SALINA         CLOUDY    73  64  73 SE7       29.90F
TOPEKA         MOCLDY    69  65  86 E8        29.96F



USA.gov is the U.S. government's official web portal to all federal, state and local government web resources and services.